TimeCST,TemperatureF,Dew PointF,Humidity,Sea Level PressureIn,VisibilityMPH,Wind Direction,Wind SpeedMPH,Gust SpeedMPH,PrecipitationIn,Events,Conditions,WindDirDegrees,DateUTC
12:53 AM,15.1,9.0,77,30.20,9.0,WSW,15.0,-,N/A,,Clear,250,2013-01-04 06:53:00
1:53 AM,14.0,7.0,74,30.21,10.0,WSW,12.7,-,N/A,,Clear,240,2013-01-04 07:53:00
2:53 AM,12.9,6.1,74,30.19,10.0,WSW,17.3,-,N/A,,Clear,250,2013-01-04 08:53:00
3:53 AM,12.9,7.0,77,30.18,10.0,WSW,16.1,-,N/A,,Clear,250,2013-01-04 09:53:00
4:53 AM,12.9,7.0,77,30.16,10.0,WSW,17.3,-,N/A,,Clear,240,2013-01-04 10:53:00
5:53 AM,14.0,8.1,77,30.16,10.0,WSW,13.8,-,N/A,,Clear,240,2013-01-04 11:53:00
7:53 AM,16.0,10.0,77,30.16,8.0,WSW,20.7,26.5,N/A,,Clear,250,2013-01-04 13:53:00
8:53 AM,19.0,12.0,74,30.17,9.0,WSW,18.4,23.0,N/A,,Clear,250,2013-01-04 14:53:00
9:53 AM,23.0,14.0,68,30.14,10.0,WSW,17.3,25.3,N/A,,Clear,250,2013-01-04 15:53:00
10:53 AM,27.0,16.0,63,30.14,10.0,WSW,20.7,31.1,N/A,,Clear,250,2013-01-04 16:53:00
11:53 AM,30.0,18.0,61,30.12,10.0,WSW,18.4,26.5,N/A,,Clear,250,2013-01-04 17:53:00
12:53 PM,30.9,18.0,59,30.10,10.0,West,23.0,38.0,N/A,,Clear,260,2013-01-04 18:53:00
1:53 PM,32.0,18.0,56,30.10,10.0,West,19.6,29.9,N/A,,Clear,260,2013-01-04 19:53:00
2:53 PM,30.9,18.0,59,30.12,10.0,West,21.9,29.9,N/A,,Clear,270,2013-01-04 20:53:00
3:53 PM,30.0,19.0,64,30.14,10.0,West,17.3,-,N/A,,Clear,260,2013-01-04 21:53:00
4:53 PM,28.9,19.0,67,30.17,10.0,WSW,16.1,-,N/A,,Clear,250,2013-01-04 22:53:00
5:53 PM,28.0,19.0,69,30.19,10.0,West,13.8,-,N/A,,Clear,260,2013-01-04 23:53:00
6:53 PM,27.0,19.0,72,30.20,10.0,WSW,12.7,-,N/A,,Clear,250,2013-01-05 00:53:00
7:53 PM,27.0,19.0,72,30.21,10.0,WSW,8.1,-,N/A,,Clear,240,2013-01-05 01:53:00
8:53 PM,26.1,18.0,71,30.20,10.0,West,12.7,-,N/A,,Clear,260,2013-01-05 02:53:00
9:53 PM,25.0,18.0,75,30.21,10.0,West,8.1,-,N/A,,Clear,260,2013-01-05 03:53:00
10:53 PM,25.0,18.0,75,30.21,10.0,WSW,9.2,-,N/A,,Clear,250,2013-01-05 04:53:00
11:53 PM,24.1,18.0,77,30.21,10.0,WSW,10.4,-,N/A,,Clear,250,2013-01-05 05:53:00